EW8518 Weather Reports


time (UTC)temp
F
wind
direction
speed
knots
gust
knots
rain 1hr
in
rain 24hr
in
rain mn
in
humidity
%
barometer
mb
20260507200109 59 126 0.9 2.6 0.00 0.00 0.00 85 1010.7
20260507194559 60 126 1.7 3.5 0.00 0.00 0.00 85 1010.6
20260507193042 61 126 0.9 3.5 0.00 0.00 0.00 83 1010.6
20260507191545 61 126 0.9 4.3 0.00 0.00 0.00 82 1010.3
20260507190023 63 126 0.9 4.3 0.00 0.00 0.00 80 1010.4
20260507184522 63 126 0.0 3.5 0.00 0.00 0.00 79 1010.3
20260507183005 63 126 0.0 2.6 0.00 0.00 0.00 78 1010.4
20260507181504 64 126 0.0 2.6 0.00 0.00 0.00 78 1010.5
20260507180046 64 126 0.9 4.3 0.00 0.00 0.00 77 1010.4
20260507174553 65 126 1.7 6.1 0.00 0.00 0.00 75 1010.4
20260507173033 65 126 4.3 7.8 0.00 0.00 0.00 74 1010.4
20260507171533 66 124 3.5 7.0 0.00 0.00 0.00 73 1010.3
20260507170010 67 124 4.3 8.7 0.00 0.00 0.00 70 1010.2
20260507164510 67 121 5.2 10.4 0.00 0.00 0.00 69 1010.1
20260507163055 67 119 6.1 12.2 0.00 0.00 0.00 69 1010.2
20260507161551 68 130 4.3 8.7 0.00 0.00 0.00 69 1010.2
20260507160035 67 134 6.1 10.4 0.00 0.00 0.00 70 1010.3
20260507154533 68 119 5.2 12.2 0.00 0.00 0.00 69 1010.2
20260507153019 67 134 7.0 12.2 0.00 0.00 0.00 70 1010.4
20260507151516 67 128 6.1 13.0 0.00 0.00 0.00 71 1010.3
20260507150058 68 123 7.0 13.0 0.00 0.00 0.00 71 1010.4
20260507144557 68 132 7.0 13.0 0.00 0.00 0.00 71 1010.3
20260507143042 68 131 7.8 12.2 0.00 0.00 0.00 68 1010.5
20260507141539 68 115 7.8 12.2 0.00 0.00 0.00 68 1010.4
20260507140022 69 115 3.5 12.2 0.00 0.00 0.00 69 1010.5
20260507134522 69 109 5.2 11.3 0.00 0.00 0.00 66 1010.7
20260507133004 69 119 7.8 13.0 0.00 0.00 0.00 66 1011.0
20260507131509 69 111 4.3 13.0 0.00 0.00 0.00 65 1011.0
20260507130103 70 132 7.0 11.3 0.00 0.00 0.00 65 1011.3
20260507124551 69 129 6.1 13.0 0.00 0.00 0.00 68 1011.2
20260507123028 69 112 8.7 14.8 0.00 0.00 0.00 66 1011.3
20260507121528 68 125 7.0 14.8 0.00 0.00 0.00 66 1011.3
20260507120023 69 121 7.0 13.9 0.00 0.00 0.00 65 1011.2
20260507114509 69 130 5.2 12.2 0.00 0.00 0.00 70 1011.2
20260507113052 68 126 7.0 13.0 0.00 0.00 0.00 66 1011.3
20260507111551 69 121 6.1 11.3 0.00 0.00 0.00 64 1011.5
20260507110033 69 132 7.8 14.8 0.00 0.00 0.00 62 1011.7
20260507104533 69 133 8.7 14.8 0.00 0.00 0.00 65 1011.6
20260507103015 69 121 7.0 13.9 0.00 0.00 0.00 65 1011.7
20260507101516 69 126 4.3 12.2 0.00 0.00 0.00 65 1011.7
20260507100057 68 128 7.0 13.0 0.00 0.00 0.00 63 1011.8
20260507094556 68 125 5.2 11.3 0.00 0.00 0.00 66 1011.7
20260507093040 70 36 1.7 5.2 0.00 0.00 0.00 65 1011.7
20260507091537 70 22 2.6 7.0 0.00 0.00 0.00 66 1011.6
20260507090022 71 19 3.5 7.8 0.00 0.00 0.00 63 1011.4
20260507084517 72 242 0.9 6.1 0.00 0.00 0.00 61 1011.3
20260507083058 70 235 0.9 7.0 0.00 0.00 0.00 48 1011.1
20260507081600 70 163 0.9 7.0 0.00 0.00 0.00 49 1011.2
20260507080034 69 165 2.6 6.1 0.00 0.00 0.00 52 1011.2
20260507074551 69 236 1.7 7.0 0.00 0.00 0.00 53 1011.3
20260507073012 68 186 0.9 6.1 0.00 0.00 0.00 58 1011.3
20260507071508 66 208 0.9 8.7 0.00 0.00 0.00 63 1011.2
20260507070049 66 204 4.3 7.8 0.00 0.00 0.00 67 1011.2
20260507064546 65 225 0.9 8.7 0.00 0.00 0.00 70 1011.1
20260507063034 65 240 1.7 7.8 0.00 0.00 0.00 71 1011.1
20260507061533 65 232 0.9 4.3 0.00 0.00 0.00 72 1011.0
20260507060029 64 232 0.9 5.2 0.00 0.00 0.00 74 1011.0
20260507054526 64 235 0.9 4.3 0.00 0.00 0.00 75 1010.8
20260507053021 62 236 0.0 1.7 0.00 0.00 0.00 79 1010.7
20260507051518 60 236 0.0 2.6 0.00 0.00 0.00 83 1010.5
20260507050025 58 235 0.0 2.6 0.00 0.00 0.00 84 1010.3
20260507044516 57 235 0.0 1.7 0.00 0.00 0.00 83 1010.3
20260507043056 57 235 0.0 0.9 0.00 0.00 0.00 83 1010.2
20260507041602 57 235 0.0 0.0 0.00 0.00 0.00 83 1010.2
20260507040044 57 235 0.0 1.7 0.00 0.00 0.00 82 1010.1
20260507034542 58 235 0.0 2.6 0.00 0.00 0.00 81 1010.2
20260507033042 58 235 1.7 4.3 0.00 0.00 0.00 82 1010.2
20260507031546 58 235 0.0 1.7 0.00 0.00 0.00 81 1010.2
20260507030047 59 235 0.0 1.7 0.00 0.00 0.00 80 1010.3
20260507024541 59 235 0.9 3.5 0.00 0.00 0.00 80 1010.1
20260507023033 59 236 0.0 6.1 0.00 0.00 0.00 80 1010.2
20260507021532 60 248 1.7 7.0 0.00 0.00 0.00 81 1010.1
20260507020010 60 259 3.5 11.3 0.00 0.00 0.00 81 1010.0
20260507014508 60 279 0.9 3.5 0.00 0.05 0.00 81 1010.0
20260507013049 60 274 0.9 9.6 0.00 0.05 0.00 81 1009.8
20260507011549 60 273 0.9 9.6 0.00 0.05 0.00 81 1009.8
20260507010033 60 251 0.9 7.0 0.00 0.05 0.00 81 1009.7
20260507004530 60 267 3.5 9.6 0.00 0.07 0.00 82 1009.7
20260507003013 60 260 2.6 9.6 0.00 0.07 0.00 81 1009.8
20260507001519 60 262 4.3 10.4 0.00 0.07 0.00 81 1009.8
20260507000054 60 238 2.6 9.6 0.00 0.07 0.00 81 1009.9
20260506234554 60 254 4.3 8.7 0.00 0.07 0.00 81 1009.9
20260506233041 60 262 2.6 13.0 0.00 0.07 0.00 80 1010.0
20260506231536 60 273 5.2 11.3 0.00 0.07 0.00 81 1009.9
20260506230018 60 259 2.6 8.7 0.00 0.07 0.00 82 1010.0
20260506224517 60 259 4.3 9.6 0.00 0.10 0.00 81 1010.0
20260506223117 60 261 2.6 10.4 0.00 0.10 0.00 81 1010.0
20260506221559 60 248 3.5 8.7 0.00 0.10 0.00 82 1010.1
20260506220059 60 246 2.6 7.8 0.00 0.10 0.00 83 1010.0
20260506214539 60 248 3.5 8.7 0.00 0.12 0.00 82 1009.9
20260506213038 60 253 4.3 8.7 0.00 0.12 0.00 82 1009.9
20260506211520 61 256 3.5 12.2 0.00 0.12 0.00 81 1009.8
20260506210018 61 247 5.2 11.3 0.00 0.12 0.00 81 1009.8
20260506204600 61 265 5.2 11.3 0.00 0.21 0.00 80 1009.7
20260506203059 61 234 4.3 15.6 0.00 0.21 0.00 78 1009.7
20260506201540 61 239 5.2 11.3 0.00 0.21 0.00 76 1009.6